Terminal Aerodrome Forecast
Issued by NWS

Home | Current Version | Previous Version | Graphics & Text | Print | Product List | Glossary On
Versions: 1 2 3 4 5 6 7 8 9 10 11 12 13
000
FTUS43 KUNR 281720
TAFGCC
TAF
KGCC 281720Z 2818/2918 18011KT P6SM SCT070
     FM282300 21009KT P6SM BKN080=

USA.gov is the U.S. government's official web portal to all federal, state and local government web resources and services.